TimeMDT,TemperatureF,Dew PointF,Humidity,Sea Level PressureIn,VisibilityMPH,Wind Direction,Wind SpeedMPH,Gust SpeedMPH,PrecipitationIn,Events,Conditions,WindDirDegrees,DateUTC
12:53 AM,75.0,28.9,18,29.58,10.0,NW,12.7,-,N/A,,Mostly Cloudy,310,2013-06-25 06:53:00
1:53 AM,69.1,36.0,30,29.60,10.0,WSW,5.8,-,N/A,,Mostly Cloudy,240,2013-06-25 07:53:00
2:53 AM,69.1,37.0,31,29.62,10.0,West,3.5,-,N/A,,Mostly Cloudy,270,2013-06-25 08:53:00
3:53 AM,66.9,42.1,40,29.61,10.0,WSW,5.8,-,N/A,,Scattered Clouds,250,2013-06-25 09:53:00
4:53 AM,62.1,39.0,43,29.63,10.0,SSW,8.1,-,N/A,,Scattered Clouds,210,2013-06-25 10:53:00
5:53 AM,62.1,36.0,38,29.66,10.0,SW,11.5,-,N/A,,Partly Cloudy,230,2013-06-25 11:53:00
6:53 AM,66.9,34.0,30,29.66,10.0,SW,9.2,-,N/A,,Partly Cloudy,230,2013-06-25 12:53:00
7:53 AM,73.9,30.0,20,29.70,10.0,West,10.4,-,N/A,,Mostly Cloudy,260,2013-06-25 13:53:00
8:53 AM,78.1,30.9,18,29.70,10.0,West,11.5,-,N/A,,Mostly Cloudy,260,2013-06-25 14:53:00
9:53 AM,82.0,28.9,14,29.70,10.0,NW,15.0,21.9,N/A,,Mostly Cloudy,320,2013-06-25 15:53:00
10:53 AM,84.9,28.9,13,29.69,10.0,WNW,16.1,20.7,N/A,,Scattered Clouds,290,2013-06-25 16:53:00
11:53 AM,86.0,27.0,12,29.70,10.0,WSW,15.0,23.0,N/A,,Mostly Cloudy,250,2013-06-25 17:53:00
12:53 PM,87.1,30.0,13,29.70,10.0,Variable,4.6,-,N/A,,Scattered Clouds,0,2013-06-25 18:53:00
1:53 PM,88.0,30.9,13,29.70,10.0,NW,6.9,-,N/A,,Scattered Clouds,320,2013-06-25 19:53:00
2:53 PM,89.1,32.0,13,29.69,10.0,Variable,3.5,-,N/A,,Scattered Clouds,0,2013-06-25 20:53:00
3:53 PM,90.0,33.1,13,29.69,10.0,Variable,4.6,-,N/A,,Scattered Clouds,0,2013-06-25 21:53:00
4:53 PM,91.0,33.1,13,29.70,10.0,WNW,6.9,-,N/A,,Scattered Clouds,290,2013-06-25 22:53:00
5:53 PM,88.0,33.1,14,29.71,10.0,North,4.6,-,N/A,,Partly Cloudy,10,2013-06-25 23:53:00
6:53 PM,84.0,36.0,18,29.73,10.0,NE,12.7,-,N/A,,Partly Cloudy,50,2013-06-26 00:53:00
7:53 PM,81.0,41.0,24,29.73,10.0,East,9.2,-,N/A,,Partly Cloudy,80,2013-06-26 01:53:00
8:53 PM,73.9,42.1,32,29.76,10.0,East,5.8,-,N/A,,Scattered Clouds,90,2013-06-26 02:53:00
9:53 PM,72.0,39.9,31,29.78,10.0,ESE,5.8,-,N/A,,Partly Cloudy,110,2013-06-26 03:53:00
10:53 PM,68.0,41.0,37,29.80,10.0,South,9.2,19.6,N/A,,Partly Cloudy,170,2013-06-26 04:53:00
11:53 PM,64.9,42.1,43,29.82,10.0,SSE,11.5,-,N/A,,Partly Cloudy,160,2013-06-26 05:53:00